sat.trackr.live / text

‹ back to catalog

KUIPER-00458

NORAD 68950 · 2026-098AH

PAYLOAD ACTIVE UNKNOWN

§ Identity

Operator
Country
US
Launch date
2026-04-30
Launch site
FRGUI
Launch vehicle
Mass (kg)
RCS (m²)

External: N2YO · Heavens-Above · Gunter

§ Orbital elements

Epoch: 2026-09-19T18:34:03.047232Z

Period
97.30 min
Inclination
51.9007°
Eccentricity
0.0000642
Mean motion
14.79930110 rev/d
Perigee alt
629.1 km
Apogee alt
630.0 km
Semi-major
7,007.7 km
B*
1.8037e-4
RAAN
349.9225°
Arg perigee
94.7306°
Mean anomaly
265.3730°
Rev number
2,162

§ Raw data

KUIPER-004581 68950U 26098AH  26262.77364638  .00001154  00000+0  18037-3 0  99972 68950  51.9007 349.9225 0000642  94.7306 265.3730 14.79930110 21629

JSON: /api/v1/satellites/68950 · /tle

For live sub-satellite position, see the globe view (requires WebGL).

§ Visibility from observer

Set your observer location to see the next 7 days of passes ≥ 10°. The values pass through the URL so the page stays shareable.

No JS? Fill the form by hand. The geolocation button needs JavaScript.